KL7GG Weather Reports


Display with metric or nautical units.
time (UTC)temp
F
wind
direction
speed
MPH
gust
MPH
rain 1hr
in
rain 24hr
in
rain mn
in
humidity
%
barometer
mb
20210226162324 24 0 0.0 0.0 0.00 0.00 0.00 75 1014.1
20210226162155 24 0 0.0 0.0 0.00 0.00 0.00 75 1014.1
20210226154045 24 0 0.0 4.0 0.00 0.00 0.00 76 1014.5
20210226153637 24 0 0.0 4.0 0.00 0.00 0.00 76 1014.5
20210226151228 23 0 0.0 0.0 0.00 0.00 0.00 76 1014.3
20210226150630 23 0 0.0 0.0 0.00 0.00 0.00 76 1014.3
20210226150055 24 0 0.0 0.0 0.00 0.00 0.00 77 1014.5
20210226145822 24 0 0.0 0.0 0.00 0.00 0.00 77 1014.5
20210226145317 24 0 0.0 0.0 0.00 0.00 0.00 77 1014.5
20210226144640 21 0 0.0 1.0 0.00 0.00 0.00 81 1014.6
20210226144346 21 0 0.0 1.0 0.00 0.00 0.00 81 1014.6
20210226143612 21 0 0.0 1.0 0.00 0.00 0.00 81 1014.6
20210226142921 20 0 0.0 1.0 0.00 0.00 0.00 79 1014.8
20210226142107 20 0 0.0 1.0 0.00 0.00 0.00 79 1014.8
20210226141312 21 0 0.0 2.0 0.00 0.00 0.00 82 1014.7
20210226135824 19 0 0.0 0.0 0.00 0.00 0.00 82 1014.7
20210226134343 19 0 0.0 0.0 0.00 0.00 0.00 82 1015.1
20210226133554 19 0 0.0 0.0 0.00 0.00 0.00 82 1015.1
20210226132816 19 0 0.0 0.0 0.00 0.00 0.00 84 1015.2
20210226132049 19 0 0.0 0.0 0.00 0.00 0.00 84 1015.2
20210226131320 18 0 0.0 2.0 0.00 0.00 0.00 82 1015.3
20210226130604 18 0 0.0 2.0 0.00 0.00 0.00 82 1015.3
20210226125823 18 0 0.0 0.0 0.00 0.00 0.00 82 1015.4
20210226125344 18 0 0.0 0.0 0.00 0.00 0.00 82 1015.4
20210226124322 18 0 0.0 0.0 0.00 0.00 0.00 82 1015.7
20210226123539 18 0 0.0 0.0 0.00 0.00 0.00 82 1015.7
20210226122848 18 0 0.0 0.0 0.00 0.00 0.00 82 1015.8
20210226122033 18 0 0.0 0.0 0.00 0.00 0.00 82 1015.8
20210226121229 18 0 0.0 3.0 0.00 0.00 0.00 82 1016.0
20210226120556 18 0 0.0 3.0 0.00 0.00 0.00 82 1016.0
20210226115802 18 0 0.0 0.0 0.00 0.00 0.00 84 1016.0
20210226115340 18 0 0.0 0.0 0.00 0.00 0.00 84 1016.0
20210226114344 18 0 0.0 0.0 0.00 0.00 0.00 83 1015.9
20210226113526 18 0 0.0 0.0 0.00 0.00 0.00 83 1015.9
20210226112928 17 0 0.0 0.0 0.00 0.00 0.00 83 1015.7
20210226112023 17 0 0.0 0.0 0.00 0.00 0.00 83 1015.7
20210226111310 16 0 0.0 0.0 0.00 0.00 0.00 81 1015.5
20210226110531 16 0 0.0 0.0 0.00 0.00 0.00 81 1015.5
20210226110140 17 0 0.0 0.0 0.00 0.00 0.00 79 1015.3
20210226105025 17 0 0.0 0.0 0.00 0.00 0.00 79 1015.3
20210226104307 19 0 0.0 0.0 0.00 0.00 0.00 82 1015.4
20210226103526 19 0 0.0 0.0 0.00 0.00 0.00 82 1015.4
20210226103054 18 0 0.0 1.0 0.00 0.00 0.00 82 1015.4
20210226101310 17 0 0.0 2.0 0.00 0.00 0.00 81 1015.3
20210226100458 17 0 0.0 2.0 0.00 0.00 0.00 81 1015.3
20210226100138 17 0 0.0 2.0 0.00 0.00 0.00 81 1015.4
20210226094951 17 0 0.0 2.0 0.00 0.00 0.00 81 1015.4
20210226094311 18 0 0.0 1.0 0.00 0.00 0.00 82 1015.4
20210226093447 18 0 0.0 1.0 0.00 0.00 0.00 82 1015.4
20210226093025 18 0 0.0 0.0 0.00 0.00 0.00 80 1015.6
20210226091953 18 0 0.0 0.0 0.00 0.00 0.00 80 1015.6
20210226091312 18 0 0.0 0.0 0.00 0.00 0.00 80 1015.9
20210226090439 18 0 0.0 0.0 0.00 0.00 0.00 80 1015.9
20210226090037 18 0 0.0 3.0 0.00 0.00 0.00 81 1015.8
20210226085809 18 0 0.0 3.0 0.00 0.00 0.00 81 1015.8
20210226085056 18 0 0.0 3.0 0.00 0.00 0.00 81 1015.8
20210226084352 17 0 0.0 0.0 0.00 0.00 0.00 83 1015.8
20210226083431 17 0 0.0 0.0 0.00 0.00 0.00 83 1015.8
20210226082744 16 0 0.0 0.0 0.00 0.00 0.00 80 1015.8
20210226081925 16 0 0.0 0.0 0.00 0.00 0.00 80 1015.8
20210226081310 18 0 0.0 0.0 0.00 0.00 0.00 80 1015.4
20210226075643 18 0 0.0 1.0 0.00 0.00 0.00 78 1015.3
20210226075053 18 0 0.0 1.0 0.00 0.00 0.00 78 1015.3
20210226074639 20 0 0.0 0.0 0.00 0.00 0.00 77 1015.4
20210226074435 20 0 0.0 0.0 0.00 0.00 0.00 77 1015.4
20210226073415 20 0 0.0 0.0 0.00 0.00 0.00 77 1015.4
20210226072849 20 0 0.0 0.0 0.00 0.00 0.00 78 1015.5
20210226071907 20 0 0.0 0.0 0.00 0.00 0.00 78 1015.5
20210226070236 21 137 1.0 3.0 0.00 0.00 0.00 76 1014.5
20210226064639 21 0 0.0 1.0 0.00 0.00 0.00 77 1014.4
20210226063401 21 0 0.0 1.0 0.00 0.00 0.00 77 1014.4
20210226062922 21 0 0.0 0.0 0.00 0.00 0.00 76 1014.5
20210226061857 21 0 0.0 0.0 0.00 0.00 0.00 76 1014.5
20210226061647 22 0 0.0 0.0 0.00 0.00 0.00 76 1014.1
20210226060351 22 0 0.0 0.0 0.00 0.00 0.00 76 1014.1
20210226054804 21 0 0.0 0.0 0.00 0.00 0.00 76 1014.1
20210226052331 23 0 0.0 0.0 0.00 0.00 0.00 75 1014.3
20210226051835 23 0 0.0 0.0 0.00 0.00 0.00 75 1014.3
20210226050711 23 0 0.0 0.0 0.00 0.00 0.00 74 1014.0
20210226045446 23 0 0.0 0.0 0.00 0.00 0.00 73 1013.9
20210226044845 23 0 0.0 0.0 0.00 0.00 0.00 73 1013.9
20210226043738 23 0 0.0 0.0 0.00 0.00 0.00 74 1013.8
20210226040740 24 0 0.0 4.0 0.00 0.00 0.00 74 1013.3
20210226035241 24 133 1.0 4.0 0.00 0.00 0.00 75 1013.1
20210226033953 24 160 1.0 5.0 0.00 0.00 0.00 75 1013.0
20210226032311 24 123 2.0 4.0 0.00 0.00 0.00 75 1013.0
20210226031758 24 123 2.0 4.0 0.00 0.00 0.00 75 1013.0
20210226030948 25 0 0.0 2.0 0.00 0.00 0.00 73 1013.0
20210226030252 25 0 0.0 2.0 0.00 0.00 0.00 73 1013.0
20210226025401 26 131 2.0 7.0 0.00 0.00 0.00 73 1012.7
20210226024805 26 131 2.0 7.0 0.00 0.00 0.00 73 1012.7
20210226023742 27 0 0.0 2.0 0.00 0.01 0.00 70 1012.7
20210226023241 27 0 0.0 2.0 0.00 0.01 0.00 70 1012.7
20210226022243 28 0 0.0 4.0 0.00 0.02 0.00 67 1012.8
20210226021737 28 0 0.0 4.0 0.00 0.02 0.00 67 1012.8
20210226020743 29 0 0.0 4.0 0.00 0.02 0.00 67 1012.6
20210226015057 30 0 0.0 2.0 0.00 0.02 0.00 63 1012.5
20210226014755 30 0 0.0 2.0 0.00 0.02 0.00 63 1012.5
20210226013925 32 129 2.0 5.0 0.00 0.02 0.00 64 1012.1
20210226013225 32 129 2.0 5.0 0.00 0.02 0.00 64 1012.1
20210226012210 33 0 0.0 1.0 0.00 0.02 0.00 62 1011.5
20210226011721 33 0 0.0 1.0 0.00 0.02 0.00 62 1011.5
20210226010458 33 0 0.0 1.0 0.00 0.02 0.00 62 1011.2
20210226010227 33 0 0.0 1.0 0.00 0.02 0.00 62 1011.2
20210226005338 33 0 0.0 5.0 0.00 0.02 0.00 60 1010.9
20210226004721 33 0 0.0 5.0 0.00 0.02 0.00 60 1010.9
20210226003711 33 274 1.0 4.0 0.00 0.02 0.00 58 1011.0
20210226002243 33 0 0.0 4.0 0.00 0.02 0.00 60 1011.0
20210226001707 33 0 0.0 4.0 0.00 0.02 0.00 60 1011.0
20210226000538 32 0 0.0 1.0 0.00 0.02 0.00 60 1010.9
20210226000227 32 0 0.0 1.0 0.00 0.02 0.00 60 1010.9
20210225235317 32 0 0.0 3.0 0.00 0.02 0.00 62 1010.9
20210225234657 32 0 0.0 3.0 0.00 0.02 0.00 62 1010.9
20210225234020 31 0 0.0 4.0 0.00 0.02 0.00 64 1010.5
20210225233156 31 0 0.0 4.0 0.00 0.02 0.00 64 1010.5
20210225232247 31 0 0.0 2.0 0.00 0.02 0.00 64 1010.4
20210225231700 31 0 0.0 2.0 0.00 0.02 0.00 64 1010.4
20210225230534 30 0 0.0 3.0 0.00 0.02 0.00 67 1010.4
20210225230145 30 0 0.0 3.0 0.00 0.02 0.00 67 1010.4
20210225225026 29 0 0.0 1.0 0.00 0.02 0.00 70 1010.1
20210225224639 29 0 0.0 1.0 0.00 0.02 0.00 70 1010.1
20210225222249 28 0 0.0 0.0 0.00 0.02 0.00 74 1009.5
20210225221629 28 0 0.0 0.0 0.00 0.02 0.00 74 1009.5
20210225220213 27 0 0.0 2.0 0.00 0.02 0.00 77 1009.4
20210225214852 26 0 0.0 2.0 0.00 0.02 0.00 78 1009.2
20210225214621 26 0 0.0 2.0 0.00 0.02 0.00 78 1009.2
20210225213614 25 0 0.0 0.0 0.00 0.02 0.00 79 1008.9
20210225213202 25 0 0.0 0.0 0.00 0.02 0.00 79 1008.9
20210225212248 25 0 0.0 0.0 0.00 0.02 0.00 79 1008.8
20210225211619 25 0 0.0 0.0 0.00 0.02 0.00 79 1008.8
20210225210614 26 0 0.0 3.0 0.00 0.02 0.00 82 1008.5
20210225210108 26 0 0.0 3.0 0.00 0.02 0.00 82 1008.5
20210225205241 25 0 0.0 1.0 0.00 0.02 0.00 85 1008.3
20210225204603 25 0 0.0 1.0 0.00 0.02 0.00 85 1008.3
20210225203523 23 0 0.0 0.0 0.00 0.02 0.00 86 1007.9
20210225203308 23 0 0.0 0.0 0.00 0.02 0.00 86 1007.9
20210225202242 23 0 0.0 1.0 0.00 0.02 0.00 88 1007.7
20210225201553 23 0 0.0 1.0 0.00 0.02 0.00 88 1007.7
20210225200615 21 0 0.0 0.0 0.00 0.02 0.00 88 1007.4
20210225200049 21 0 0.0 0.0 0.00 0.02 0.00 88 1007.4
20210225195343 20 0 0.0 0.0 0.00 0.02 0.00 88 1007.1
20210225194546 20 0 0.0 0.0 0.00 0.02 0.00 88 1007.1
20210225194052 19 0 0.0 2.0 0.00 0.02 0.00 88 1007.0
20210225193108 19 0 0.0 2.0 0.00 0.02 0.00 88 1007.0
20210225192244 19 0 0.0 4.0 0.00 0.02 0.00 88 1006.7
20210225191537 19 0 0.0 4.0 0.00 0.02 0.00 88 1006.7
20210225185526 15 0 0.0 0.0 0.00 0.02 0.00 89 1005.8
20210225184108 14 0 0.0 1.0 0.00 0.02 0.00 89 1005.5
20210225182935 13 0 0.0 0.0 0.00 0.02 0.00 87 1005.2
20210225181106 14 0 0.0 0.0 0.00 0.02 0.00 87 1005.0
20210225175318 16 0 0.0 2.0 0.00 0.02 0.00 89 1004.9
20210225174522 16 0 0.0 2.0 0.00 0.02 0.00 89 1004.9
20210225173753 14 0 0.0 0.0 0.00 0.02 0.00 88 1004.6
20210225172022 15 0 0.0 0.0 0.00 0.02 0.00 88 1004.5
20210225170544 15 0 0.0 0.0 0.00 0.02 0.00 88 1004.1
20210225165958 15 0 0.0 0.0 0.00 0.02 0.00 88 1004.1
20210225164034 15 0 0.0 0.0 0.00 0.02 0.00 88 1003.5
20210225162949 15 0 0.0 0.0 0.00 0.02 0.00 88 1003.5